Hourly Data Report for October 28, 2016

All times are specified in Local Standard Time (LST). Add 1 hour to adjust for Daylight Saving Time where and when it is observed.

HALL BEACH A
NUNAVUT

68°46'33.000" N
81°14'33.000" W
9.10 m
2402354
71293
YUX

Related Data

No related data is available for this station

Download Data

Hourly Data (October 2016)
Hourly Data Report for October 28, 2016
Temp Definition
°C
Dew Point Temp Definition
°C
Rel Hum Definition
%
Wind Dir Definition
10's deg

Wind Spd Definition
km/h
Visibility Definition
km
Stn Press Definition
kPa
Hmdx Definition


Wind Chill Definition


Weather Definition


TIME
00:00 Legend Double Dagger -10.7 -12.9 84 32 32 16.1 100.07   -21 Snow
01:00 Legend Double Dagger -9.4 -11.9 82 5 21 16.1 100.02   -17 LegendNANA
02:00 Legend Double Dagger -8.5 -13.1 70 3 30 14.5 100.10   -18 Snow
03:00 Legend Double Dagger -8.4 -13.3 68 5 28 16.1 100.16   -17 LegendNANA
04:00 Legend Double Dagger -8.6 -13.9 66 2 28 16.1 100.16   -17 Snow
05:00 Legend Double Dagger -9.9 -12.1 84 33 18 16.1 100.16   -17 Snow
06:00 Legend Double Dagger -8.9 -11.5 81 34 21 16.1 100.12   -17 Snow
07:00 Legend Double Dagger -8.3 -9.5 91 2 43 0.8 100.06   -19 Snow
08:00 Legend Double Dagger -7.6 -8.7 92 2 50 0.2 99.92   -18 Heavy Snow
09:00 Legend Double Dagger -7.3 -11.7 71 6 30 16.1 99.99   -16 LegendNANA
10:00 Legend Double Dagger -7.6 -13.1 65 5 28 16.1 99.98   -16 LegendNANA
11:00 Legend Double Dagger -7.5 -10.4 80 5 28 16.1 99.93   -16 LegendNANA
12:00 Legend Double Dagger -7.8 -12.6 69 7 22 16.1 99.92   -15 LegendNANA
13:00 Legend Double Dagger -8.1 -11.2 79 14 21 16.1 99.92   -16 Snow
14:00 Legend Double Dagger -8.9 -14.0 67 12 15 16.1 99.92   -15 LegendNANA
15:00 Legend Double Dagger -8.7 -10.5 87 12 8 2.8 99.93   -13 Snow
16:00 Legend Double Dagger -9.2 -11.5 84 12 11 16.1 99.90   -15 LegendNANA
17:00 Legend Double Dagger -9.8 -12.3 82 LegendMM 4 16.1 99.85   -12 LegendNANA
18:00 Legend Double Dagger -10.2 -11.8 88 33 11 4.8 99.78   -16 Snow
19:00 Legend Double Dagger -11.5 -12.6 92 16 13 16.1 99.82   -18 Snow
20:00 Legend Double Dagger -9.5 -10.3 94 17 28 16.1 99.88   -19 Snow
21:00 Legend Double Dagger -9.9 -12.1 84 16 35 8.1 99.96   -20 Snow
22:00 Legend Double Dagger -10.7 -13.0 83 17 22 16.1 100.02   -19 LegendNANA
23:00 Legend Double Dagger -10.4 -14.1 75 17 18 16.1 100.00   -18 LegendNANA

Notes on Data Quality.

Legend

  • E = Estimated
  • M = Missing
  • NA = Not Available
  • ‡ = Partner data that is not subject to review by the National Climate Archives
Date modified: